[[{"header":{"parameterUnit":"m.s-1","parameterCategory":1,"la1":30.2991,"la2":30.254,"lo1":-89.0895,"lo2":-89.0444,"dy":0.0017,"dx":0.0017,"nx":28,"ny":28,"refTime":"2025-12-03T03:00:00:Z","depth":0,"parameterNumber":2,"parameterNumberName":"U-component_of_WINDS"},"data":[0,0,0,0,0,0,0,0,0,0,0,0,0,0,0,0,0,0,0,0,0,0,0,0,0,0,0,0,0,0,0,0,0,0,0,0,0,0,0,0,0,0,0,0,0,0,0,0,0,0,0,0,0,0,0,0,0,0,-1.5667,-1.5668,0,-1.5724,-1.5725,-1.5725,-1.5704,-1.5702,-1.5701,-1.57,-1.5758,-1.576,-1.5763,0,0,0,0,0,0,0,0,0,0,0,0,0,-1.5539,-1.5542,-1.5667,-1.5668,-1.5669,-1.5724,-1.5725,-1.5725,-1.5704,-1.5702,-1.5701,-1.5699,-1.5757,-1.576,-1.5763,0,0,0,0,0,0,0,0,0,0,0,0,0,-1.5595,-1.5543,-1.5667,-1.5665,-1.5665,-1.5724,-1.5725,-1.5726,-1.5704,-1.5702,-1.57,-1.5698,-1.5756,-1.576,-1.5764,-1.5828,0,0,-1.5776,-1.5778,0,0,0,0,0,0,0,0,-1.5592,-1.56,-1.5664,-1.5665,-1.5665,-1.5705,-1.5701,-1.576,-1.5705,-1.5689,-1.57,-1.5697,-1.5742,-1.5747,-1.5762,-1.5831,-1.5834,-1.5777,-1.5779,-1.5781,-1.5782,0,0,0,0,0,0,0,-1.5588,-1.5598,-1.569,-1.5665,-1.5666,-1.566,-1.5666,-1.5712,-1.5726,-1.569,-1.5689,-1.5696,-1.5741,-1.5758,-1.5763,-1.5834,-1.5777,-1.578,-1.5783,-1.5784,-1.5958,-1.596,0,0,0,0,0,0,-1.5584,-1.5594,-1.5688,-1.5691,-1.5623,-1.5664,-1.5671,-1.5694,-1.5725,-1.5728,-1.5698,-1.5695,-1.5752,-1.5758,-1.5765,-1.5842,-1.5781,-1.5785,-1.5787,-1.5956,-1.5959,-1.5961,0,0,0,0,0,0,-1.5582,-1.5593,-1.5686,-1.5643,-1.5654,-1.5668,-1.5695,-1.5696,-1.5712,-1.5731,-1.5733,-1.5712,-1.575,-1.5759,-1.5812,-1.5844,-1.5787,-1.579,-1.5954,-1.5957,-1.596,-1.5997,0,0,0,0,0,0,-1.5578,-1.5592,-1.5617,-1.5643,-1.5656,-1.5733,-1.5697,-1.5699,-1.572,-1.5716,-1.5744,-1.5747,-1.5749,-1.5806,-1.5817,-1.5848,-1.5794,-1.5951,-1.5955,-1.5959,-1.5993,-1.6001,-1.6008,0,0,0,0,0,-1.5574,-1.5626,-1.5619,-1.563,-1.5688,-1.5735,-1.5742,-1.5744,-1.5722,-1.5747,-1.5759,-1.5746,-1.5838,-1.5812,-1.5823,-1.5857,-1.5949,-1.5954,-1.5959,-1.599,-1.6,-1.6008,0,0,0,0,0,0,-1.5603,-1.5629,-1.5622,-1.5684,-1.5707,-1.5731,-1.5763,-1.5754,-1.5784,-1.578,-1.5781,-1.5787,-1.5842,-1.5855,-1.5825,-1.592,-1.589,-1.5898,-1.591,-1.592,-1.5927,-1.5923,-1.5797,0,0,0,0,0,-1.5617,-1.5653,-1.5673,-1.5726,-1.5738,-1.5749,-1.5769,-1.5768,-1.5792,-1.5802,-1.5818,-1.5842,-1.5876,-1.5898,-1.5931,-1.5995,-1.6,-1.6023,-1.6031,-1.6037,-1.6043,-1.6077,-1.6087,-1.5977,-1.5977,-1.5977,0,0,-1.5646,-1.5664,-1.5687,-1.5733,-1.5751,-1.5788,-1.5757,-1.5798,-1.5825,-1.5808,-1.586,-1.5872,-1.5898,-1.5957,-1.5984,-1.5969,-1.6075,-1.6043,-1.6047,-1.6051,-1.6083,-1.6093,-1.6103,-1.598,-1.598,-1.5979,0,0,-1.5718,-1.5735,-1.5781,-1.5799,-1.5827,-1.5833,-1.5844,-1.5869,-1.5876,-1.5927,-1.5916,-1.5947,-1.6007,-1.6026,-1.6044,-1.612,-1.611,-1.6131,-1.617,-1.6203,-1.6212,-1.622,-1.6247,-1.6257,-1.6137,-1.6137,-1.6137,0,-1.575,-1.5805,-1.5805,-1.5847,-1.5867,-1.5853,-1.5899,-1.5916,-1.5953,-1.5967,-1.595,-1.6023,-1.604,-1.6103,-1.6122,-1.6136,-1.6148,-1.6128,-1.6211,-1.6218,-1.6226,-1.6251,-1.6262,-1.614,-1.6139,-1.6139,-1.6139,0,-1.5844,-1.5882,-1.5916,-1.5951,-1.5975,-1.6018,-1.6024,-1.6048,-1.6044,-1.6052,-1.6104,-1.6124,-1.616,-1.6174,-1.6172,-1.6236,-1.6226,-1.621,-1.618,-1.6238,-1.6263,-1.6273,-1.6143,-1.6142,-1.6142,-1.6141,0,0,-1.5937,-1.5971,-1.5983,-1.5999,-1.6027,-1.6057,-1.6099,-1.6134,-1.6154,-1.6179,-1.6215,-1.6264,-1.6249,-1.6269,-1.6268,-1.6297,-1.6356,-1.6277,-1.6277,-1.6291,-1.6428,-1.644,-1.6452,-1.6348,-1.635,-1.6352,-1.6425,0,-1.6011,-1.6085,-1.6086,-1.6154,-1.6189,-1.6176,-1.6212,-1.6233,-1.6241,-1.6272,-1.628,-1.6315,-1.6293,-1.6304,-1.6332,-1.6343,-1.6383,-1.6337,-1.6381,-1.6383,-1.6375,-1.6464,-1.6478,-1.6546,-1.6435,-1.6437,-1.6438,0,-1.6108,-1.6136,-1.6207,-1.623,-1.6244,-1.6278,-1.6309,-1.6338,-1.6361,-1.6365,-1.6387,-1.6381,-1.6423,-1.6391,-1.6449,-1.6417,-1.6435,-1.6443,-1.6445,-1.645,-1.6414,-1.6472,-1.6568,-1.6579,-1.6453,-1.6452,-1.645,0,-1.6168,-1.6224,-1.6274,-1.6288,-1.6315,-1.6338,-1.6351,-1.6372,-1.6393,-1.642,-1.6433,-1.6465,-1.6482,-1.6506,-1.6509,-1.6485,-1.6567,-1.6535,-1.6571,-1.6571,-1.6589,-1.6588,-1.6691,-1.66,-1.66,-1.66,-1.66,0,-1.6251,-1.6296,-1.6301,-1.6332,-1.6381,-1.6381,-1.6429,-1.6439,-1.6458,-1.649,-1.648,-1.651,-1.6512,-1.6542,-1.6544,-1.6592,-1.66,-1.6603,-1.6604,-1.6605,-1.6604,-1.6617,-1.6612,-1.6603,-1.6602,-1.6601,-1.6601,0,-1.6328,-1.6334,-1.6387,-1.6408,-1.6414,-1.645,-1.6467,-1.6496,-1.6503,-1.6543,-1.6553,-1.6563,-1.6598,-1.6603,-1.6644,-1.6646,-1.6702,-1.6697,-1.6695,-1.6694,-1.6729,-1.6726,-1.6844,-1.6859,-1.6758,-1.6759,-1.676,0,-1.6381,-1.6414,-1.6439,-1.6459,-1.6473,-1.6507,-1.6527,-1.6527,-1.6549,-1.6577,-1.6603,-1.6637,-1.6665,-1.6722,-1.6733,-1.6764,-1.676,-1.6799,-1.6765,-1.6764,-1.676,-1.6759,-1.6762,-1.6806,-1.6807,-1.6808,-1.6808,0,-1.6474,-1.6474,-1.6505,-1.6536,-1.656,-1.6585,-1.6608,-1.6625,-1.6628,-1.6653,-1.6689,-1.671,-1.6752,-1.6786,-1.6817,-1.6829,-1.6819,-1.6819,-1.6829,-1.6831,-1.6828,-1.683,-1.6713,-1.6817,-1.6816,-1.6815,-1.6815,-1.6814,-1.654,-1.6569,-1.659,-1.6624,-1.6641,-1.6662,-1.6691,-1.67,-1.673,-1.6764,-1.6762,-1.6802,-1.6823,-1.6863,-1.6877,-1.6907,-1.6895,-1.6909,-1.6913,-1.6916,-1.692,-1.6822,-1.6913,-1.6913,-1.6913,-1.6912,-1.6912,0,-1.6632,-1.6645,-1.6676,-1.6708,-1.6734,-1.6722,-1.6746,-1.6769,-1.6804,-1.6824,-1.6851,-1.6892,-1.6925,-1.6938,-1.6969,-1.6991,-1.6987,-1.6999,-1.6998,-1.7001,-1.693,-1.6918,-1.7002,-1.7002,-1.7002,-1.7002,-1.7002,-1.7002,-1.6684,-1.6732,-1.6735,-1.6791,-1.6803,-1.6842,-1.6857,-1.6876,-1.6892,-1.6938,-1.6965,-1.6973,-1.699,-1.7023,-1.7052,-1.7054,-1.7067,-1.7081,-1.7082,-1.7015,-1.7006,-1.6997,-1.6986,-1.7083,-1.7083,-1.715,-1.7151,-1.7151]},{"header":{"parameterUnit":"m.s-1","parameterCategory":1,"la1":30.2991,"la2":30.254,"lo1":-89.0895,"lo2":-89.0444,"dy":0.0017,"dx":0.0017,"nx":28,"ny":28,"refTime":"2025-12-03T03:00:00:Z","depth":0,"parameterNumber":3,"parameterNumberName":"V-component_of_WINDS"},"data":[0,0,0,0,0,0,0,0,0,0,0,0,0,0,0,0,0,0,0,0,0,0,0,0,0,0,0,0,0,0,0,0,0,0,0,0,0,0,0,0,0,0,0,0,0,0,0,0,0,0,0,0,0,0,0,0,0,0,-4.8966,-4.8967,0,-4.9053,-4.9054,-4.9055,-4.9013,-4.9011,-4.9008,-4.9006,-4.9091,-4.9095,-4.9099,0,0,0,0,0,0,0,0,0,0,0,0,0,-4.8756,-4.876,-4.8966,-4.8967,-4.8968,-4.9053,-4.9054,-4.9055,-4.9013,-4.9011,-4.9008,-4.9005,-4.9089,-4.9094,-4.9099,0,0,0,0,0,0,0,0,0,0,0,0,0,-4.8845,-4.8761,-4.8965,-4.8957,-4.8957,-4.9053,-4.9054,-4.9056,-4.9014,-4.9011,-4.9007,-4.9004,-4.9087,-4.9094,-4.91,-4.9207,0,0,-4.912,-4.9123,0,0,0,0,0,0,0,0,-4.884,-4.8853,-4.8957,-4.8958,-4.8958,-4.9019,-4.9011,-4.9106,-4.9015,-4.8992,-4.9006,-4.9002,-4.9069,-4.9077,-4.91,-4.9211,-4.9214,-4.912,-4.9124,-4.9127,-4.9129,0,0,0,0,0,0,0,-4.8834,-4.8849,-4.9,-4.8959,-4.896,-4.8947,-4.8956,-4.9029,-4.9048,-4.8994,-4.8991,-4.9002,-4.9069,-4.9094,-4.9102,-4.9216,-4.912,-4.9126,-4.913,-4.9133,-4.9415,-4.9418,0,0,0,0,0,0,-4.8829,-4.8844,-4.8997,-4.9003,-4.889,-4.8954,-4.8964,-4.9003,-4.9047,-4.9051,-4.9005,-4.9,-4.9085,-4.9094,-4.9105,-4.9231,-4.9127,-4.9133,-4.9137,-4.9411,-4.9416,-4.942,0,0,0,0,0,0,-4.8825,-4.8843,-4.8994,-4.8923,-4.8941,-4.8961,-4.9005,-4.9006,-4.9032,-4.9056,-4.9058,-4.9028,-4.9083,-4.9096,-4.9182,-4.9233,-4.9136,-4.9142,-4.9407,-4.9413,-4.9418,-4.9486,0,0,0,0,0,0,-4.8819,-4.8842,-4.8884,-4.8924,-4.8945,-4.9071,-4.9008,-4.901,-4.9044,-4.9038,-4.9078,-4.9081,-4.9081,-4.9172,-4.9188,-4.9241,-4.9147,-4.9403,-4.941,-4.9416,-4.9479,-4.9493,-4.9505,0,0,0,0,0,-4.8812,-4.8899,-4.8887,-4.8905,-4.8999,-4.9074,-4.9086,-4.9085,-4.9048,-4.909,-4.9105,-4.908,-4.9225,-4.9181,-4.9199,-4.9254,-4.9399,-4.9408,-4.9416,-4.9473,-4.949,-4.9504,0,0,0,0,0,0,-4.8864,-4.8904,-4.8891,-4.8995,-4.9032,-4.9067,-4.912,-4.9104,-4.915,-4.9143,-4.9138,-4.9147,-4.9236,-4.9254,-4.9204,-4.9358,-4.9306,-4.9318,-4.9344,-4.936,-4.9373,-4.9366,-4.9152,0,0,0,0,0,-4.8888,-4.8948,-4.8979,-4.9067,-4.9087,-4.91,-4.9133,-4.9129,-4.9167,-4.9181,-4.9203,-4.9238,-4.9291,-4.9327,-4.9377,-4.9481,-4.9488,-4.9527,-4.954,-4.9551,-4.9561,-4.9615,-4.9632,-4.9446,-4.9446,-4.9446,0,0,-4.8937,-4.8967,-4.9005,-4.9079,-4.9107,-4.9167,-4.9114,-4.918,-4.9224,-4.9191,-4.9274,-4.929,-4.9329,-4.9424,-4.9467,-4.9441,-4.9614,-4.9561,-4.9569,-4.9574,-4.9625,-4.9643,-4.9658,-4.9452,-4.9451,-4.945,0,0,-4.9057,-4.9087,-4.9163,-4.9192,-4.9236,-4.9244,-4.9262,-4.93,-4.9311,-4.9394,-4.937,-4.9421,-4.9513,-4.9542,-4.9568,-4.9697,-4.9676,-4.9714,-4.9781,-4.9834,-4.9848,-4.9861,-4.9906,-4.9922,-4.9724,-4.9724,-4.9724,0,-4.9113,-4.9205,-4.9204,-4.9272,-4.9304,-4.9278,-4.9353,-4.9381,-4.9439,-4.946,-4.9431,-4.9546,-4.957,-4.967,-4.9702,-4.9725,-4.9743,-4.9709,-4.9847,-4.9859,-4.9871,-4.9914,-4.9931,-4.9728,-4.9728,-4.9728,-4.9727,0,-4.927,-4.9333,-4.9389,-4.9446,-4.9485,-4.9556,-4.9563,-4.9602,-4.9594,-4.9605,-4.9688,-4.9716,-4.9771,-4.9795,-4.9788,-4.9893,-4.9876,-4.9847,-4.9794,-4.9893,-4.9933,-4.9949,-4.9735,-4.9733,-4.9732,-4.9731,0,0,-4.9426,-4.9482,-4.9502,-4.9527,-4.9572,-4.962,-4.9689,-4.9744,-4.9777,-4.9816,-4.9872,-4.9951,-4.9924,-4.9954,-4.9949,-4.9995,-5.0094,-4.996,-4.9961,-4.9983,-5.021,-5.0231,-5.025,-5.008,-5.0083,-5.0086,-5.0206,0,-4.9549,-4.9672,-4.9672,-4.9785,-4.9842,-4.9818,-4.9877,-4.991,-4.9921,-4.9969,-4.9981,-5.0036,-4.9997,-5.0015,-5.0059,-5.0073,-5.0139,-5.0064,-5.013,-5.0132,-5.0121,-5.0271,-5.0294,-5.0406,-5.0222,-5.0224,-5.0226,0,-4.971,-4.9756,-4.9874,-4.991,-4.9934,-4.9988,-5.0037,-5.0085,-5.012,-5.0125,-5.0158,-5.0146,-5.0213,-5.0159,-5.025,-5.0199,-5.0226,-5.0236,-5.024,-5.0246,-5.0185,-5.0279,-5.0443,-5.0459,-5.0251,-5.0249,-5.0247,0,-4.981,-4.9902,-4.9984,-5.0006,-5.005,-5.0088,-5.0108,-5.0141,-5.0173,-5.0216,-5.0236,-5.0286,-5.0312,-5.035,-5.035,-5.0311,-5.0442,-5.0388,-5.0445,-5.0446,-5.0474,-5.0472,-5.0643,-5.0493,-5.0493,-5.0492,-5.0492,0,-4.9947,-5.002,-5.003,-5.0081,-5.0161,-5.0159,-5.0237,-5.0253,-5.0282,-5.0333,-5.0315,-5.0363,-5.0361,-5.0409,-5.0409,-5.0484,-5.0496,-5.05,-5.0499,-5.0502,-5.0501,-5.0519,-5.051,-5.0497,-5.0496,-5.0495,-5.0494,0,-5.0073,-5.0083,-5.0171,-5.0205,-5.0216,-5.0273,-5.0301,-5.0348,-5.0357,-5.0422,-5.0437,-5.045,-5.0506,-5.051,-5.0574,-5.0574,-5.0664,-5.0655,-5.0652,-5.065,-5.0707,-5.0701,-5.0895,-5.0919,-5.0754,-5.0756,-5.0757,0,-5.016,-5.0216,-5.0256,-5.029,-5.0312,-5.0367,-5.04,-5.0399,-5.0434,-5.0478,-5.0519,-5.0573,-5.0616,-5.0705,-5.0719,-5.0767,-5.0759,-5.0823,-5.0766,-5.0766,-5.0758,-5.0754,-5.0759,-5.0834,-5.0836,-5.0837,-5.0838,0,-5.0312,-5.0314,-5.0363,-5.0415,-5.0455,-5.0495,-5.0532,-5.056,-5.0563,-5.0603,-5.066,-5.0694,-5.0759,-5.0812,-5.0858,-5.0876,-5.0857,-5.0856,-5.0872,-5.0875,-5.087,-5.0872,-5.0682,-5.0852,-5.085,-5.0849,-5.0849,-5.0848,-5.042,-5.0468,-5.0503,-5.0559,-5.0587,-5.0621,-5.0667,-5.0681,-5.073,-5.0784,-5.078,-5.0842,-5.0874,-5.0935,-5.0956,-5.1004,-5.0982,-5.1005,-5.101,-5.1016,-5.1021,-5.0864,-5.1012,-5.1012,-5.1012,-5.1011,-5.1011,0,-5.057,-5.0591,-5.0642,-5.0695,-5.0738,-5.0718,-5.0757,-5.0794,-5.085,-5.0882,-5.0925,-5.0989,-5.104,-5.1058,-5.1107,-5.1141,-5.1134,-5.1154,-5.1151,-5.1155,-5.1039,-5.102,-5.1159,-5.1159,-5.1159,-5.1159,-5.1159,-5.1159,-5.0653,-5.0732,-5.0738,-5.083,-5.085,-5.0913,-5.0936,-5.0967,-5.0993,-5.1066,-5.1109,-5.1121,-5.1146,-5.1197,-5.1241,-5.1245,-5.1263,-5.1287,-5.1287,-5.1178,-5.1163,-5.1149,-5.1131,-5.1291,-5.1291,-5.1399,-5.14,-5.14]}]]